Location: Miles
(41.4492°N, 81.6087°W)
Time: 06:37:19
(UTC+00:00)

Courier 1B - Pass Details

Date: 22 September 2024
Orbit: 962 x 1208 km, 28.3° (Epoch: 11 October)

Event Time Altitude Azimuth Distance (km) Brightness Sun altitude
Rises 15:57:50 0° 218° (SW) 3,649 10.7 44.6°
Reaches altitude 10° 16:01:26 10° 198° (SSW) 2,730 10.5 44.9°
Maximum altitude 16:05:29 17° 160° (SSE) 2,297 10.7 45.3°
Drops below altitude 10° 16:09:38 10° 122° (ESE) 2,821 10.7 45.6°
Sets 16:13:26 0° 104° (ESE) 3,827 11.0 45.9°
